Regional Weather Roundup
Issued by NWS

Home | Current Version | Previous Version | Text Only | Print | Product List | Glossary Off
Versions: 1 2 3 4 5 6 7 8 9 10 11 12 13 14 15 16 17 18 19 20 21 22 23 24 25 26 27 28 29 30 31 32 33 34 35 36 37 38 39 40 41 42 43 44 45 46 47 48 49 50

000
ASUS45 KBOI 191710
RWRID
WEATHER ROUNDUP FOR IDAHO
NATIONAL WEATHER SERVICE BOISE ID
1100 AM MDT SUN OCT 19 2014

NOTE: "FAIR" INDICATES FEW OR NO CLOUDS BELOW 12000 FEET
WITH NO SIGNIFICANT WEATHER AND/OR OBSTRUCTIONS TO VISIBILITY

IDZ012-014-191800-
SOUTHWEST IDAHO


CITY           SKY/WX    TMP DP  RH WIND       PRES   REMARKS
BOISE          SUNNY     61  34  36 SE14      30.02F
CALDWELL       SUNNY     55  32  41 SE8       30.04F
MOUNTAIN HOME  SUNNY     54  33  45 SE15      30.05S
$$

IDZ016-017-191800-
SOUTHCENTRAL IDAHO


CITY           SKY/WX    TMP DP  RH WIND       PRES   REMARKS
BURLEY         SUNNY     53  37  54 NE9       30.10S
JEROME         LGT RAIN  59  32  36 NE17      30.08S
TWIN FALLS     SUNNY     55  35  47 E10       30.08S
$$

IDZ019>023-191800-
SOUTHEAST IDAHO


CITY           SKY/WX    TMP DP  RH WIND       PRES   REMARKS
IDAHO FALLS    SUNNY     52  38  58 N5        30.16S
POCATELLO      SUNNY     54  37  52 N5        30.15S
REXBURG        SUNNY     49  37  63 CALM      30.17S
$$

IDZ006-010-011-018-031-032-191800-
CENTRAL IDAHO MOUNTAINS


CITY           SKY/WX    TMP DP  RH WIND       PRES   REMARKS
MCCALL         SUNNY     47  39  74 CALM      30.08S
HAILEY         SUNNY     52  27  37 NW12      30.17S
STANLEY          N/A     38  28  67 CALM      30.21S
SALMON         NOT AVBL
CHALLIS        SUNNY     47  32  56 N3        30.16F
$$

IDZ002-004-006-007-026-191800-
NORTHERN IDAHO


CITY           SKY/WX    TMP DP  RH WIND       PRES   REMARKS
LEWISTON       SUNNY     57  45  64 E10       29.93F
LOWELL           N/A     49  43  80 NW5       30.04F
COEUR D`ALENE  PTSUNNY   52  46  82 N15       29.97S
MULLAN PASS    SUNNY     48  40  73 VRB6      30.06S
$$



USA.gov is the U.S. government's official web portal to all federal, state and local government web resources and services.